Regional Weather Roundup
Issued by NWS

Home | Current Version | Previous Version | Graphics & Text | Print | Product List | Glossary On
Versions: 1 2 3 4 5 6 7 8 9 10 11 12 13 14 15 16 17 18 19 20 21 22 23 24 25 26
000
ASUS45 KSLC 271910
RWRUT

UTAH REGIONAL WEATHER ROUNDUP
NATIONAL WEATHER SERVICE SALT LAKE CITY UT
100 PM MDT THU JUL 27 2017

UTZ001>011-023>025-272000-

NORTHERN UTAH

CITY           SKY/WX    TMP DP  RH WIND       PRES   REMARKS
BRIGHAM CITY   SUNNY     83  48  30 S5        30.18F
HILL AFB       MOSUNNY   80  53  38 SW9       30.21F
LOGAN          SUNNY     83  54  36 CALM      30.18F
OGDEN          SUNNY     82  53  36 CALM      30.18F
SALT LAKE CITY MOSUNNY   85  59  41 VRB7      30.15F
TOOELE VALLEY  SUNNY     82  55  39 N12       30.17F
WENDOVER       SUNNY     82  52  35 SE9       30.17F
HEBER CITY     SUNNY     81  52  36 NW5       30.23F
WEST JORDAN    SUNNY     82  60  48 N3        30.20S

$$

UTZ011>015-024>027-272000-

CENTRAL/NORTHEAST UTAH

CITY           SKY/WX    TMP DP  RH WIND       PRES   REMARKS
PROVO AIRPORT  SUNNY     80  61  52 NW6       30.19F HAZE
MOAB/CANYONLAN SUNNY     91  56  30 CALM      30.11F
DELTA          SUNNY     86  48  26 CALM      30.18F
PRICE          MOSUNNY   84  47  27 CALM      30.23F
RICHFIELD      MOSUNNY   84  54  34 SE3       30.21F
ROOSEVELT      SUNNY     86  50  28 CALM      30.20F
VERNAL         SUNNY     86  58  38 SW9       30.19F

$$

UTZ013>016-019>022-027-272000-

SOUTHERN UTAH

CITY           SKY/WX    TMP DP  RH WIND       PRES   REMARKS
BRYCE CANYON   MOSUNNY   76  46  34 CALM      30.38F
CEDAR CITY     SUNNY     83  57  41 VRB6      30.23F
MILFORD        SUNNY     87  53  31 CALM      30.18F
ST GEORGE      CLEAR     91  63  39 VRB3      30.04F HX  92
HANKSVILLE     SUNNY     90  52  27 S3        30.14F
KANAB          SUNNY     88  55  33 NW3       30.20F
BLANDING       SUNNY     89  47  23 SW7       30.28F

$$

REGIONAL REPORTS     COLORADO/ARIZONA

CITY           SKY/WX    TMP DP  RH WIND       PRES   REMARKS
CRAIG, CO      SUNNY     83  50  31 W6        30.26F
GRAND JUNCTION SUNNY     90  52  27 W5        30.13F
RIFLE, CO      SUNNY     87  54  32 NW5       30.18F
MONTROSE, CO   SUNNY     85  56  37 N8        30.21F
CORTEZ, CO     SUNNY     89  49  25 SE6       30.20F
COLORADO CITY    N/A     88  57  35 NW6       30.21F
PAGE, AZ       SUNNY     92  54  27 CALM      30.10F HX  90
GRAND CANYON   MOSUNNY   81  52  36 VRB3      30.31F
KINGMAN, AZ    SUNNY     95  52  23 NE3       30.07F HX  92
FLAGSTAFF, AZ  PTSUNNY   79  51  37 N6        30.33F THUNDER

$$

REGIONAL REPORTS    NEVADA/IDAHO/WYOMING

CITY           SKY/WX    TMP DP  RH WIND       PRES   REMARKS
LAS VEGAS, NV  MOSUNNY   98  60  28 E5        29.97F HX  98
ELY, NY          N/A    N/A N/A N/A MISG      30.28F
ELKO, NV       SUNNY     83  44  25 S8        30.20F
POCATELLO, ID  LGT RAIN  75  55  49 E6        30.21F
BURLEY, ID     SUNNY     80  51  36 VRB3      30.17S
FORT BRIDGER,    N/A     81  41  24 W15G23    30.35F
EVANSTON, WY   SUNNY     78  47  33 W20G28    30.34F
ROCK SPRINGS,  SUNNY     80  43  26 SW10G21   30.30F
KEMMERER, WY     N/A     75  45  33 W15G22    30.35F

$$




USA.gov is the U.S. government's official web portal to all federal, state and local government web resources and services.